Location: Axtheid
(49.6213°N, 11.8205°E)
Time: 11:32:39
(UTC+00:00)

Cosmos 2263 - Pass Details

Date: 18 February 2020
Orbit: 832 x 864 km, 70.9° (Epoch: 08 April)

Event Time Altitude Azimuth Distance (km) Brightness Sun altitude
Exits shadow 04:46:14 - 328° (NNW) 3,265 6.9 -15.5°
Reaches altitude 10° 04:48:17 10° 326° (NW) 2,489 6.3 -15.2°
Maximum altitude 04:53:53 61° 247° (WSW) 960 4.2 -14.3°
Drops below altitude 10° 04:59:25 10° 169° (SSE) 2,451 6.8 -13.4°
Sets 05:01:52 0° 165° (SSE) 3,378 7.6 -13.0°
